Location: Newark
(48.1500°N, 2.9667°W)
Time: 01:38:03
(UTC+00:00)

A-11 Canister half - Pass Details

Date: 01 February 2020
Orbit: 1517 x 1683 km, 47.2° (Epoch: 26 February)

Event Time Altitude Azimuth Distance (km) Brightness Sun altitude
Exits shadow 04:30:52 36° 193° (SSW) 2,247 9.6 -31.7°
Drops below altitude 10° 04:37:15 10° 155° (SSE) 3,691 11.2 -30.7°
Sets 04:40:33 0° 147° (SSE) 4,686 11.8 -30.1°
